Regional Weather Roundup
Issued by NWS

Home | Current Version | Previous Version | Graphics & Text | Print | Product List | Glossary On
Versions: 1 2 3 4 5 6 7 8 9 10 11 12 13 14 15 16 17 18 19 20 21 22 23 24 25 26 27 28 29 30 31 32 33 34 35 36 37 38 39 40 41 42 43 44 45 46 47 48 49 50
000
ASUS43 KLOT 170510
RWRIL

ILLINOIS REGIONAL WEATHER ROUNDUP
NATIONAL WEATHER SERVICE CHICAGO/ROMEOVILLE IL
1200 AM CDT WED SEP 17 2014

NOTE: "FAIR" INDICATES FEW OR NO CLOUDS BELOW 12,000 FEET WITH NO
SIGNIFICANT WEATHER AND/OR OBSTRUCTIONS TO VISIBILITY.

* THESE STATIONS ARE NOT UNDER NWS QUALITY CONTROL. THEY ALSO MAY NOT
  REPORT WEATHER SUCH AS PRECIPITATION OR FOG.

ILZ001-002-007-009-015-016-024-170600-
NORTHWEST ILLINOIS

CITY           SKY/WX    TMP DP  RH WIND       PRES   REMARKS
MOLINE         CLEAR     47  45  93 CALM      30.09S
STERLING*      CLEAR     45  39  81 SE3       30.09F
SAVANNA*       CLEAR     46  44  93 CALM      30.09S FOG
$$

ILZ003-004-008-010-011-017-018-170600-
NORTH CENTRAL ILLINOIS

CITY           SKY/WX    TMP DP  RH WIND       PRES   REMARKS
ROCKFORD       CLEAR     46  43  89 CALM      30.11S
FREEPORT*      CLEAR     42  40  93 CALM      30.11S
ROCHELLE*      CLEAR     41  40  95 CALM        N/A
DE KALB*       CLEAR     45  41  86 CALM      30.10F
PERU*          CLEAR     49  44  83 CALM      30.10S
$$

ILZ005-006-012>014-019>023-170600-
NORTHEAST ILLINOIS

CITY           SKY/WX    TMP DP  RH WIND       PRES   REMARKS
CHICAGO-OHARE  CLEAR     55  47  74 CALM      30.09S
CHICAGO-MIDWAY CLEAR     57  49  74 SE5       30.09S
AURORA         CLEAR     43  40  89 CALM      30.10S
LANSING*       CLEAR     47  46  97 CALM      30.10S
JOLIET*        CLEAR     44  42  94 CALM      30.10F
WAUKEGAN       CLEAR     45  43  93 SW3       30.08F
DUPAGE AIRPORT CLEAR     47  43  86 CALM      30.09S
KANKAKEE*      CLEAR     45  44  98 CALM      30.10S
WHEELING       CLEAR     50  46  86 CALM      30.10F
MORRIS*        CLEAR     46  46 100 CALM      30.09S
ROMEOVILLE*    CLEAR     47  45  92 CALM      30.09F
NORTHERLY ISL    N/A     58  51  78 S5          N/A
$$

LMZ740>746-170600-
SOUTHERN LAKE MICHIGAN

STATION/POSITION SKY/WX   TEMP    WIND        PRES    VSBY  WAVE
                          AIR SEA DIR/SP/G                  HT/PER
                          (F)     (DEG/KT/KT) (MB)    (MI)  (FT/S)
SOUTHERN BUOY              60 64  210/  6/  8 1018.8F         1
WAUKEGAN HARBOR            54     250/  3/  4   N/A
HARRISON CRIB              60     130/  6/  6   N/A
BURNHAM HARBOR             57     170/  4/  4   N/A
CALUMET HARBOR             55      CALM  /  1 1017.8S
MICHIGAN CITY              53     110/  7/  9   N/A
MICHIGAN CITY 6N           58 65  130/  8/ 10   N/A           1/ 4
ST. JOSEPH                 58 66  120/  6/  8   N/A           1/ 4
$$

ILZ025>027-034>036-040-047-049-050-058-095>099-170600-
WEST-CENTRAL ILLINOIS

CITY           SKY/WX    TMP DP  RH WIND       PRES   REMARKS
QUINCY         CLEAR     54  51  90 S5        30.08F FOG
GALESBURG*     CLEAR     44  43  94 CALM      30.10S
MACOMB*        CLEAR     44  43  96 CALM      30.11S
JACKSONVILLE*  CLEAR     52  50  92 SW3       30.10F
PITTSFIELD*    CLEAR     51  49  92 CALM      30.10F
$$

ILZ028>032-037-038-041>044-048-051>054-059>061-170600-
CENTRAL ILLINOIS

CITY           SKY/WX    TMP DP  RH WIND       PRES   REMARKS
PONTIAC        CLEAR     46  46 100 CALM      30.10S
DECATUR        CLEAR     52  48  86 W3        30.10F
PEORIA         CLEAR     51  47  86 CALM      30.09F
LACON*         CLEAR     46  43  91 CALM      30.09S
LINCOLN*       CLEAR     49  46  90 CALM      30.08S
SPRINGFIELD    CLEAR     49  47  93 CALM      30.10S
TAYLORVILLE    CLEAR     48  46  93 CALM      30.10S
$$

ILZ033-039-045-046-055>057-062-063-170600-
EAST-CENTRAL ILLINOIS

CITY           SKY/WX    TMP DP  RH WIND       PRES   REMARKS
CHAMPAIGN      CLEAR     48  46  93 CALM      30.10F
DANVILLE*      CLEAR     46  45  97 CALM      30.07F
RANTOUL*       CLEAR     53  46  77 CALM      30.11S
MATTOON        CLEAR     50  48  93 SW3       30.10F FOG
PARIS*         CLEAR     47  47 100 CALM      30.11F
$$

ILZ079-100>102-170600-
SOUTHWEST ILLINOIS

CITY           SKY/WX    TMP DP  RH WIND       PRES   REMARKS
ALTON          CLEAR     49  49  97 CALM      30.10F FOG
BELLEVILLE     CLEAR     50  50 100 CALM      30.09F FOG
CAHOKIA*       PTCLDY    51  50  96 CALM      30.10S FOG
SPARTA*        CLEAR     49  49  98 CALM      30.11S
$$

ILZ064>066-069>071-074>076-080>082-084>086-088>090-092>094-170600-
SOUTH-CENTRAL ILLINOIS

CITY           SKY/WX    TMP DP  RH WIND       PRES   REMARKS
CARBONDALE     CLEAR     48  47  96 CALM      30.10F FOG
CAIRO*         CLEAR     53  50  87 CALM      30.10F
EFFINGHAM*     PTCLDY    48  46  91 CALM      30.10F FOG
MARION         FOG       50  50 100 CALM      30.11F VSB 1/4
MT. VERNON     CLEAR     48  45  87 CALM      30.11F
CENTRALIA*     FOG       47  46  93 CALM      30.10F VSB 1/2
SALEM*         FOG       51  51  99 CALM      30.11S VSB 3/4
METROPOLIS*    CLEAR     51  51 100 CALM      30.09F FOG
$$

ILZ067-068-072-073-078-083-087-091-170600-
SOUTHEAST ILLINOIS

CITY           SKY/WX    TMP DP  RH WIND       PRES   REMARKS
LAWRENCEVILLE  CLEAR     48  47  96 CALM      30.11F FOG
FLORA*         FOG       46  46  99 CALM      30.11F VSB 1/4
FAIRFIELD*     CLEAR    N/A N/A N/A CALM      30.11S FOG
HARRISBURG*    FOG       48  48 100 CALM      30.12F VSB 3/4
ROBINSON*      CLEAR     47  47  99 CALM      30.12S FOG
CARMI*         CLEAR     48  48 100 CALM      30.10F FOG
$$

ABBREVIATIONS USED IN REMARKS
   TC - TEMPERATURE IN CELSIUS
  WCI - WIND CHILL INDEX
   HX - HEAT INDEX
  VSB - VISIBILITY
$$



USA.gov is the U.S. government's official web portal to all federal, state and local government web resources and services.